Location: Staunton
(38.1490°N, 79.0720°W)
Time: 14:26:23
(UTC-04:00)

ISS - Pass Details

Date: 19 May 2017
Orbit: 402 x 408 km, 51.6° (Epoch: 29 May)

Event Time Altitude Azimuth Distance (km) Brightness Sun altitude
Exits shadow 01:43:30 10° 19° (NNE) 1,453 -0.2 -31.6°
Drops below altitude 10° 01:43:32 10° 20° (NNE) 1,466 -0.2 -31.6°
Sets 01:46:08 0° 41° (NE) 2,326 0.8 -31.5°
